sat.trackr.live / text

‹ back to catalog

MENUT

NORAD 55010 · 2023-001B

PAYLOAD ACTIVE UNKNOWN

§ Identity

Operator
Country
SPN
Launch date
2023-01-03
Launch site
AFETR
Launch vehicle
Mass (kg)
RCS (m²)

External: N2YO · Heavens-Above · Gunter

§ Orbital elements

Epoch: 2026-05-25T04:10:05.522592Z

Period
92.48 min
Inclination
97.3165°
Eccentricity
0.0005784
Mean motion
15.57077402 rev/d
Perigee alt
392.2 km
Apogee alt
400.0 km
Semi-major
6,774.3 km
B*
8.8095e-4
RAAN
212.4433°
Arg perigee
176.7640°
Mean anomaly
183.3654°
Rev number
18,881

§ Raw data

MENUT1 55010U 23001B   26145.17367503  .00064101  00000+0  88095-3 0  99912 55010  97.3165 212.4433 0005784 176.7640 183.3654 15.57077402188812

JSON: /api/v1/satellites/55010 · /tle

For live sub-satellite position, see the globe view (requires WebGL).

§ Visibility from observer

Set your observer location to see the next 7 days of passes ≥ 10°. The values pass through the URL so the page stays shareable.

No JS? Fill the form by hand. The geolocation button needs JavaScript.

§ Radio — SatNOGS DB

ModeDescriptionDownlinkUplink
QPSK S-band TT&C transceiver (operator-provided) 2.245 GHz 2.057 GHz

1 transmitter · refreshed weekly from db.satnogs.org